Regional Weather Roundup
Issued by NWS New Orleans/Baton Rouge, LA

Home | Current Version | Previous Version | Text Only | Print | Product List | Glossary Off
Versions: 1 2 3 4 5 6 7 8 9 10 11 12 13 14 15 16 17 18 19 20 21 22 23 24 25 26 27 28 29 30 31 32 33 34 35 36 37 38 39 40 41 42 43 44 45 46 47 48 49 50

432
ASUS44 KLIX 051405
RWRLIX
NEW ORLEANS REGIONAL WEATHER ROUNDUP
NATIONAL WEATHER SERVICE NEW ORLEANS LA
800 AM CST THU MAR 05 2015

NOTE: "FAIR" INDICATES FEW OR NO CLOUDS BELOW 12,000 FEET WITH NO
      SIGNIFICANT WEATHER AND/OR OBSTRUCTIONS TO VISIBILITY.
      SKY/WX - SKY CONDITION AND SIGNIFICANT WEATHER.
      TMP - AIR TEMPERATURE.     DP    - DEWPOINT TEMPERATURE.
      RH  - RELATIVE HUMIDITY.   PRES  - PRESSURE.
      HI  - HEAT INDEX.          WCI   - WIND CHILL INDEX.

*  THESE STATIONS ARE NOT NWS OR FAA STATIONS AND ARE NOT UNDER
   NWS QUALITY CONTROL.

LAZ038-040-048-061>063-065>067-069-051500-
SOUTHEAST LOUISIANA

CITY           SKY/WX    TMP DP  RH WIND       PRES   REMARKS
N.O. AUDUBON   NOT AVBL
N.O. INTL ARPT CLOUDY    42  37  82 N23G32    30.19R
N.O. LAKEFRONT CLOUDY    46  40  79 N30G38    30.19R
SLIDELL        LGT RAIN  42  39  89 N14G26    30.17R
BATON ROUGE    CLOUDY    36  33  89 N8G18     30.22R WCI  30
BOOTHVILLE     CLOUDY    54  52  93 NW28G44   30.06R
BELLE CHASSE   LGT RAIN  45  39  79 N16G33    30.14R FOG
BOGALUSA*      RAIN      40  35  84 N13G22    30.21R WCI  32
GALLIANO*      CLOUDY    47  45  93 NW26G35   30.14R
NEW ROADS*     DRIZZLE   35  32  88 N16       30.24R WCI  26
GONZALES*      RAIN      38  38  99 N10G21    30.19R WCI  31
HAMMOND*       LGT RAIN  37  36  93 N16       30.21S WCI  28
HOUMA*         CLOUDY    43  39  87 N17G29    30.16R FOG
PORT FOURCHON* CLOUDY    52  50  93 N29G39    30.13R FOG

$$

MSZ070-080>082-051500-
SOUTHERN MISSISSIPPI

CITY           SKY/WX    TMP DP  RH WIND       PRES   REMARKS
MCCOMB         CLOUDY    34  32  92 N14G21    30.22R WCI  25
GULFPORT       CLOUDY    48  45  89 NW23G36   30.11R
BILOXI         CLOUDY    50  50 100 N26G33    30.10R
PASCAGOULA     CLOUDY    57  54  89 N20G26    30.06R
STENNIS ARPT*  CLOUDY    45  39  81 N17G29    30.16R

$$

COASTAL OBSERVATIONS
LAKE AND NEARSHORE STATIONS

STATION/POSITION TIME  TEMP    WIND        PRES    WAVE
                       AIR SEA DIR/SP/G            HT/PER
                 (UTC) (F)     (DEG/KT/KT) (MB)    (FT/S)
PASCAGOULA       1400   66     270/  7/ 10 1015.6
WAVELAND YACHT   1400      63  340/ 25/ 33 1019.6
GRAND ISLE       1400      66  340/ 26/ 36 1018.8
SOUTHWEST PASS   1400   67 44  270/ 11/ 12 1016.7
NEW CANAL        1400   45     350/ 23/ 29 1022.0
SHELL BEACH      1400      62  320/ 34/ 39 1019.4

OFFSHORE STATIONS

STATION/POSITION TIME  TEMP    WIND        PRES    WAVE
                       AIR SEA DIR/SP/G            HT/PER
                 (UTC) (F)     (DEG/KT/KT) (MB)    (FT/S)
64 S DAUPHIN ISL 1348   73 71  200/ 12/ 16 1015.9    5/ 8

$$




USA.gov is the U.S. government's official web portal to all federal, state and local government web resources and services.